Location: La Brionne
(46.1728°N, 1.7849°E)
Time: 05:34:15
(UTC+00:00)

FALCON 9 DEB - Visible Passes

Search period start: 26 October 2021 00:00
Search period end: 05 November 2021 00:00
Orbit: 353 x 363 km, 53.0° (Epoch: 25 October)

Date Brightness Start Highest point End Pass type
(mag) Time Alt. Az. Time Alt. Az. Time Alt. Az.
26 Oct 4.6 17:40:25 10° S 17:42:25 17° SE 17:43:31 14° ESE visible
26 Oct 5.7 19:14:30 10° WSW 19:15:15 16° WSW 19:15:15 16° WSW visible
27 Oct 3.0 18:07:31 10° SW 18:10:24 50° SE 18:11:00 41° ESE visible
28 Oct 3.3 18:35:36 10° WSW 18:38:18 54° NW 18:38:18 54° NW visible
29 Oct 2.9 17:28:23 10° SW 17:31:19 60° SE 17:33:46 14° ENE visible
29 Oct 5.4 19:04:08 10° W 19:05:28 20° WNW 19:05:28 20° WNW visible
30 Oct 3.4 17:56:26 10° WSW 17:59:19 49° NNW 18:00:48 24° NE visible
31 Oct 4.3 18:24:52 10° WNW 18:27:29 27° NNW 18:27:42 27° N visible
01 Nov 3.5 17:17:01 10° W 17:19:52 44° NNW 17:22:45 10° NE visible
01 Nov 5.4 18:53:19 10° WNW 18:54:29 17° NW 18:54:29 17° NW visible
02 Nov 4.4 17:45:21 10° WNW 17:47:54 26° NNW 17:49:32 16° NE visible
03 Nov 4.6 18:13:37 10° NW 18:15:58 21° N 18:16:09 21° N visible
04 Nov 4.4 17:05:32 10° WNW 17:08:04 24° NNW 17:10:35 10° NE visible
04 Nov 5.2 18:41:32 10° NW 18:42:42 17° NNW 18:42:42 17° NNW visible
